AirNav   Pilot Hours Calculator
 
 1360 users online  

KXNI Andrew Othole Memorial Airport
Zuni, New Mexico, USA

GOING TO ZUNI?


FAA INFORMATION EFFECTIVE 10 OCTOBER 2019

Location

FAA Identifier: XNI
Lat/Long: 35-03-38.4300N 108-56-15.3600W
35-03.640500N 108-56.256000W
35.0606750,-108.9376000
(estimated)
Elevation: 6370.1 ft. / 1941.6 m (surveyed)
Variation: 09E (2015)
From city: 4 miles W of ZUNI, NM
Time zone: UTC -6 (UTC -7 during Standard Time)
Zip code: 87315

Airport Operations

Airport use: Open to the public
Activation date: 10/2017
Control tower: no
ARTCC: ALBUQUERQUE CENTER
FSS: ALBUQUERQUE FLIGHT SERVICE STATION
NOTAMs facility: ABQ (NOTAM-D service not available)
Attendance: UNATNDD
Wind indicator: lighted
Segmented circle: no
Lights: ACTIVATE MIRL RWY 06/24 - CTAF.
Beacon: white-green (lighted land airport)
Operates sunset to sunrise.

Airport Communications

CTAF: 122.9

Nearby radio navigation aids

VOR radial/distance  VOR name  Freq  Var
ZUNr048/12.1ZUNI VORTAC113.4014E
GUPr173/25.1GALLUP VORTAC115.1014E
SJNr003/39.5ST JOHNS VORTAC112.3012E

Airport Services

Parking: buoy

Runway Information

Runway 6/24

Dimensions: 6000 x 75 ft. / 1829 x 23 m
Surface: asphalt, in excellent condition
Runway edge lights: medium intensity
RUNWAY 6  RUNWAY 24
Latitude: 35-03.465395N35-03.815618N
Longitude: 108-56.818195W108-55.693695W
Elevation: 6295.0 ft.6370.1 ft.
Traffic pattern: leftleft
Markings: nonprecision, in good conditionnonprecision, in good condition
Touchdown point: yes, no lightsyes, no lights
Obstructions: 16 ft. trees, 528 ft. from runway, 20:1 slope to clear18 ft. trees, 640 ft. from runway, 40 ft. left of centerline, 24:1 slope to clear

Airport Ownership and Management from official FAA records

Ownership: Publicly-owned
Owner: PUEBLO OF ZUNI
1203-B STATE HWY 53
ZUNI, NM 87327
Phone 505-782-7000
Manager: ROYCE GCHACHU
1203B STATE HWY 53
ZUNI, NM 87327
Phone (505) 782-7116
ALTERNATE PHONE: 505-782-7101 OR 505-870-0673/505-782-7003 (CALVERT MARTINEZ)

Airport Operational Statistics

Aircraft operations: avg 24/month *
52% air taxi
34% transient general aviation
14% military
* for 12-month period ending 16 April 2019

Additional Remarks

GATE CODE: 5149
AIRPORT OPERATIONS ESTIMATED.
FOR CD CTC ALBUQUERQUE ARTCC AT 505-856-4861.

Instrument Procedures

There are no published instrument procedures at KXNI.

Some nearby airports with instrument procedures:

KGUP - Gallup Municipal Airport (28 nm N)
KRQE - Window Rock Airport (36 nm N)
KSJN - St Johns Industrial Air Park (39 nm SW)
KGNT - Grants-Milan Municipal Airport (51 nm E)
KJTC - Springerville Municipal Airport (59 nm S)
 
Loc | Ops | Rwys | IFR | FBO | Links
Com | Nav | Svcs | Stats | Notes

AirBoss

 
Aerial photo
WARNING: Photo may not be current or correct
Aerial photo of KXNI (Andrew Othole Memorial Airport)
Photo by Perry Null
Taken in September 2018
looking west.

Do you have a better or more recent aerial photo of Andrew Othole Memorial Airport that you would like to share? If so, please send us your photo.

 
Airport distance calculator
Flying to Andrew Othole Memorial Airport? Find the distance to fly.

From to KXNI

Sunrise and sunset
Times for 14-Oct-2019
 Local
(UTC-6)
 Zulu
(UTC)
Morning civil twilight06:5612:56
Sunrise07:2213:22
Sunset18:4200:42
Evening civil twilight19:0701:07

Current date and time
Zulu (UTC)  14-Oct-2019 18:05:19
Local (UTC-6)  14-Oct-2019 12:05:19
 
METAR
KGUP 
28nm N 
141753Z AUTO VRB06KT 10SM CLR 18/M03 A3017 RMK AO2 SLP140 T01831028 10183 21011 58004
KRQE 
36nm N 
141753Z AUTO 16005KT 10SM FEW080 19/M04 A3017 RMK AO2 SLP124 T01891039 10189 21017 58007 $
KSJN 
39nm SW 
141754Z AUTO 33005KT 10SM CLR 20/M01 A3012 RMK AO2 SLP134 T02001011 10206 20028 58005
TAF
KGUP 
28nm N 
141721Z 1418/1518 25007KT P6SM SKC FM141900 25012G19KT P6SM SKC FM150200 VRB03KT P6SM SKC
NOTAMs
Click for the latest NOTAMs
NOTAMs are issued by the DoD/FAA and will open in a separate window not controlled by AirNav.

 

 
 

Would you like to see your business listed on this page?

 If your business provides an interesting product or service to pilots, flight crews, aircraft, or users of the Andrew Othole Memorial Airport, you should consider listing it here.  To start the listing process, click on the button below
 
Add a business
 

Other Pages about Andrew Othole Memorial Airport

Update a link
 
Copyright © AirNav, LLC. All rights reserved. Privacy Policy  Contact